SCP
0 0 0 0 0 0 0 0 0 0 0 0 0 0 0 0 0 0 0 0 0 0 0 0 0 0 0 0 0 0 0 0 0 0 0 0 0 0 0 0 0 0 0
0 0 0 0 0 0 0 0 0 0 0 0 0 0 0 0 0 0 0 0 0 0 0 0 0 0 0 0 0 0 0 0 0 0 0 0 0 0 0 0 0 0 0
0 0 0 0 0 0 0 0 0 0 0 0 0 0 0 0 0 0 0 0 0 0 0 0 0 0 0 0 0 0 0 0 0 0 0 0 0 0 0 0 0 0 0
0 0 0 0 0 0 0 0 0 0 0 0 0 0 0 0 0 0 0 0 0 0 0 0 0 0 0 0 0 0 0 0 0 0 0 0 0 0 0 0 0 0 0
0 0 0 0 0 0 0 0 0 0 0 0 0 0 0 0 0 0 0 0 0 0 0 0 0 0 0 0 0 0 0 0 0 0 0 0 0 0 0 0 0 0 0
0 0 0 0 0 0 0 0 0 0 0 0 0 0 0 0 0 0 0 0 0 0 0 0 0 0 0 0 0 0 0 0 0 0 0 0 0 0 0 0 0 0 0
0 0 0 0 0 0 0 0 0 0 0 0 0 0 0 0 0 0 0 0 0 0 0 0 0 0 0 0 0 0 0 0 0 0 0 0 0 0 0 0 0 0 0
0 0 0 0 0 0 0 0 0 0 0 0 0 0 0 0 0 0 0 0 0 0 0 0 0 0 0 0 0 0 0 0 0 0 0 0 0 0 0 0 0 0 0
0 0 0 0 0 0 0 0 0 0 0 0 0 0 0 0 0 0 0 0 0 0 0 0 0 0 0 0 0 0 0 0 0 0 0 0 0 0 0 0 0 0 0
0 0 0 0 0 0 0 0 0 0 0 0 0 0 0 0 0 0 0 0 0 0 0 0 0 0 0 0 0 0 0 0 0 0 0 0 0 0 0 0 0 0 0
0 0 0 0 0 0 0 0 0 0 0 0 0 0 0 0 0 0 0 0 0 0 0 0 0 0 0 0 0 0 0 0 0 0 0 0 0 0 0 0 0 0 0
0 0 0 0 0 0 0 0 0 0 0 0 0 0 0 0 0 0 0 0 0 0 0 0 0 0 0 0 0 0 0 0 0 0 0 0 0 0 0 0 0 0 0
0 0 0 0 0 0 0 0 0 0 0 0 0 0 0 0 0 0 0 0 0 0 0 0 0 0 0 0 0 0 0 0 0 0 0 0 0 0 0 0 0 0 0
0 0 0 0 0 0 0 0 0 0 0 0 0 0 0 0 0 0 0 0 0 0 0 0 0 0 0 0 0 0 0 0 0 0 0 0 0 0 0 0 0 0 0
0 0 0 0 0 0 0 0 0 0 0 0 0 0 0 0 0 0 0 0 0 0 0 0 0 0 0 0 0 0 0 0 0 0 0 0 0 0 0 0 0 0 0
0 0 0 0 0 0 0 0 0 0 0 0 0 0 0 0 0 0 0 0 0 0 0 0 0 0 0 0 0 0 0 0 0 0 0 0 0 0 0 0 0 0 0
0 0 0 0 0 0 0 0 0 0 0 0 0 0 0 0 0 0 0 0 0 0 0 0 0 0 0 0 0 0 0 0 0 0 0 0 0 0 0 0 0 0 0
0 0 0 0 0 0 0 0 0 0 0 0 0 0 0 0 0 0 0 0 0 0 0 0 0 0 0 0 0 0 0 0 0 0 0 0 0 0 0 0 0 0 0
0 0 0 0 0 0 0 0 0 0 0 0 0 0 0 0 0 0 0 0 0 0 0 0 0 0 0 0 0 0 0 0 0 0 0 0 0 0 0 0 0 0 0
0 0 0 0 0 0 0 0 0 0 0 0 0 0 0 0 0 0 0 0 0 0 0 0 0 0 0 0 0 0 0 0 0 0 0 0 0 0 0 0 0 0 0
0 0 0 0 0 0 0 0 0 0 0 0 0 0 0 0 0 0 0 0 0 0 0 0 0 0 0 0 0 0 0 0 0 0 0 0 0 0 0 0 0 0 0
0 0 0 0 0 0 0 0 0 0 0 0 0 0 0 0 0 0 0 0 0 0 0 0 0 0 0 0 0 0 0 0 0 0 0 0 0 0 0 0 0 0 0
0 0 0 0 0 0 0 0 0 0 0 0 0 0 0 0 0 0 0 0 0 0 0 0 0 0 0 0 0 0 0 0 0 0 0 0 0 0 0 0 0 0 0
0 0 0 0 0 0 0 0 0 0 0 0 0 0 0 0 0 0 0 0 0 0 0 0 0 0 0 0 0 0 0 0 0 0 0 0 0 0 0 0 0 0 0
0 0 0 0 0 0 0 0 0 0 0 0 0 0 0 0 0 0 0 0 0 0 0 0 0 0 0 0 0 0 0 0 0 0 0 0 0 0 0 0 0 0 0
0 0 0 0 0 0 0 0 0 0 0 0 0 0 0 0 0 0 0 0 0 0 0 0 0 0 0 0 0 0 0 0 0 0 0 0 0 0 0 0 0 0 0
Wind_Speed
2 1 1 0 1 1 2 3 3 3 4 4 4 3 3 3 3 2 3 4 5 7 7 9 11 11 8 8 7 8 8 9 12 9 8 9 10 11 10 9 9 9 8
1 0 1 1 1 2 3 3 3 4 4 4 4 4 4 5 4 4 5 5 6 8 10 11 12 10 11 9 8 9 9 9 9 11 9 8 10 11 11 10 8 6 5
1 1 1 2 2 2 3 4 4 4 5 4 4 5 6 5 5 6 6 7 7 9 10 12 13 13 13 10 10 10 8 8 7 9 10 9 8 8 8 8 7 4 4
1 2 2 2 3 3 4 4 4 4 5 5 5 6 6 6 6 6 6 7 8 10 11 12 13 13 13 13 11 10 9 8 8 9 10 10 9 8 6 6 5 2 2
2 3 3 3 3 4 4 5 5 5 6 5 6 6 5 5 5 6 6 8 9 12 13 14 14 17 19 14 11 9 9 8 9 9 10 10 9 7 6 4 4 2 1
3 4 4 4 4 5 5 5 5 6 5 5 5 5 5 4 7 9 9 8 10 13 14 14 14 15 16 18 19 19 16 13 12 11 10 11 11 8 5 4 3 2 2
3 4 4 4 5 6 5 5 5 5 4 4 4 3 4 5 8 10 14 11 11 12 13 13 12 12 15 12 15 18 18 21 21 15 13 13 11 7 5 4 3 2 1
3 4 5 5 5 5 5 5 4 3 3 3 3 4 4 6 11 13 17 11 11 12 13 13 13 14 13 13 12 13 14 13 13 11 10 9 7 4 3 2 4 4 2
4 5 5 4 5 5 5 4 4 3 4 4 4 5 6 8 12 14 16 10 10 13 13 12 13 12 15 17 14 13 13 10 7 5 2 3 4 5 6 5 4 2 1
4 4 4 4 4 4 5 5 5 5 5 5 6 6 6 8 12 15 16 8 10 11 11 12 14 14 16 18 13 11 10 6 4 3 7 10 10 11 11 6 3 2 2
3 4 5 6 6 6 6 5 5 5 5 6 6 7 7 9 12 15 16 9 9 10 10 9 9 16 19 19 14 7 5 3 2 5 7 8 8 7 7 6 5 3 3
5 7 7 7 6 6 6 5 5 5 6 6 7 8 7 8 10 13 17 17 15 11 9 9 10 17 19 16 8 3 0 2 4 6 7 8 7 7 7 7 8 8 8
7 7 6 7 6 5 5 5 4 5 5 6 7 8 8 8 9 13 15 18 19 12 9 16 18 18 14 8 7 8 6 5 6 8 8 8 7 6 6 6 7 8 10
7 6 5 6 5 5 4 4 4 5 6 7 8 8 8 8 8 9 9 10 13 12 10 13 16 13 9 8 8 8 8 7 8 9 8 7 6 6 6 6 6 6 8
6 5 5 5 4 5 4 3 4 3 5 7 6 7 8 8 11 16 12 9 9 10 11 7 6 7 7 6 6 7 7 7 8 8 7 6 6 6 6 6 6 6 8
6 5 4 4 4 4 4 5 6 7 11 11 10 9 7 9 15 16 18 18 17 17 9 7 7 7 7 6 6 7 7 7 7 7 7 6 6 6 6 6 6 6 8
6 5 4 4 4 4 4 5 6 8 9 10 12 13 13 14 15 16 18 18 15 13 7 7 7 7 7 6 6 6 7 7 6 7 7 6 5 6 6 6 6 6 7
7 7 5 3 3 4 4 5 5 6 7 7 9 12 15 15 15 15 16 12 9 9 7 7 7 7 7 6 6 6 6 6 6 6 6 6 5 5 6 6 6 7 7
6 4 4 3 3 4 4 5 6 7 6 7 7 9 13 13 12 13 12 8 8 8 8 8 7 7 7 6 6 6 6 6 6 6 6 6 4 5 5 6 7 9 8
5 7 5 4 4 5 5 6 6 7 7 7 7 8 9 8 7 9 8 8 8 8 8 8 8 8 7 7 6 6 6 6 6 6 5 5 4 4 5 7 7 7 8
4 5 6 5 4 5 5 6 6 6 7 7 7 10 13 7 8 9 8 8 8 8 8 8 8 8 7 7 6 6 7 6 5 5 5 4 4 4 5 6 7 7 8
4 3 3 4 4 5 5 6 6 7 7 8 7 8 12 8 7 8 8 8 8 8 8 7 7 7 7 6 6 6 6 5 5 5 4 4 4 5 5 6 6 7 7
3 3 3 4 4 6 6 6 6 7 7 7 7 7 8 8 8 8 9 9 8 8 8 8 7 7 7 6 6 5 5 4 4 4 5 4 4 4 5 6 7 7 7
3 3 3 3 4 5 5 6 6 7 7 7 7 7 8 8 8 9 9 9 8 8 8 8 8 11 12 8 6 5 5 5 4 4 7 6 5 5 5 6 7 8 8
3 3 3 3 4 4 5 6 6 7 7 7 7 7 8 8 8 9 9 9 10 9 11 10 8 9 12 12 10 7 7 7 7 5 5 6 7 7 7 7 6 7 7
3 3 3 3 4 4 5 5 6 6 6 7 7 7 7 8 8 9 9 9 10 9 10 9 12 12 13 10 10 9 7 6 6 6 4 5 6 6 6 6 7 7 8
Wind_Direction
118 102 92 1 352 352 332 310 304 300 301 297 294 287 270 259 249 251 270 283 297 303 305 306 302 298 290 283 277 269 262 259 271 280 277 283 286 286 289 286 278 273 271
162 165 268 303 326 328 313 303 298 295 293 288 286 279 267 257 245 251 271 284 290 299 304 305 303 300 292 288 281 275 270 265 271 284 289 289 285 285 283 282 281 271 260
201 228 275 295 306 306 302 302 300 294 293 292 284 273 268 263 256 257 265 279 288 293 298 300 299 297 292 287 282 278 275 275 273 283 288 286 283 280 279 278 271 266 251
220 238 258 271 277 284 290 293 291 289 287 285 279 273 270 272 269 269 275 286 292 296 298 296 294 290 286 284 280 276 277 279 280 281 283 283 280 277 266 266 262 229 236
222 235 251 265 274 280 283 285 288 288 284 280 282 284 286 284 280 282 286 295 301 305 304 300 294 290 286 285 286 287 287 283 281 279 279 279 276 273 263 250 249 207 213
232 248 263 273 279 278 278 283 287 289 290 291 292 296 303 305 314 316 319 310 309 308 306 303 299 293 293 296 296 294 289 285 282 276 273 271 271 266 260 242 216 193 215
246 264 270 271 277 280 286 291 290 292 296 305 317 328 330 329 336 332 326 323 312 305 300 298 297 295 298 292 291 293 290 284 277 271 267 263 264 258 241 223 195 169 145
263 276 283 287 288 293 298 298 300 308 327 343 3 8 356 344 343 333 328 322 308 301 296 292 289 290 290 290 292 290 286 284 283 276 264 261 258 249 218 168 129 112 101
287 296 303 305 306 318 332 344 359 23 27 25 21 11 354 336 332 328 329 316 308 306 301 297 293 289 289 293 296 291 290 291 307 344 23 67 81 92 104 108 114 114 86
312 316 332 351 7 23 34 40 39 44 34 21 11 356 339 324 320 322 324 316 311 309 305 302 300 295 297 300 297 289 289 299 331 26 59 64 69 72 71 72 84 91 81
344 25 40 48 61 62 59 52 45 39 27 14 357 338 325 315 315 319 324 324 313 307 304 305 303 302 304 304 300 286 273 286 39 72 72 69 65 61 56 55 55 65 73
61 64 58 52 59 62 58 47 37 27 15 1 348 339 329 323 320 322 324 324 322 312 308 306 305 308 312 313 314 323 48 102 89 81 75 69 66 63 61 63 65 66 67
80 70 61 59 53 49 47 35 19 8 360 347 343 341 337 334 329 326 324 324 326 325 313 316 319 321 324 331 19 53 77 84 84 80 77 73 71 70 68 68 70 71 70
88 75 62 56 44 32 26 16 5 354 348 345 346 342 337 335 338 337 332 327 327 329 325 321 322 330 347 8 37 59 67 74 83 84 83 82 75 65 59 58 68 70 77
88 76 61 49 37 20 8 349 348 327 331 339 340 337 337 340 333 330 333 333 333 331 327 327 339 350 8 29 53 68 73 78 82 87 90 86 75 66 62 58 64 70 76
86 70 56 45 33 21 7 359 355 352 343 345 343 343 336 330 331 338 342 340 338 339 343 348 355 3 15 32 54 68 72 78 85 90 91 86 73 68 70 65 66 72 78
86 75 57 46 33 18 8 5 356 347 346 349 348 350 352 346 345 346 346 341 342 348 356 0 5 11 19 34 52 67 75 79 85 90 94 86 72 69 71 73 74 73 76
79 72 66 46 29 13 2 358 356 354 353 354 351 352 352 350 348 350 348 349 358 3 3 6 10 15 22 34 49 63 75 81 85 90 92 85 72 67 70 74 77 79 79
80 70 55 39 24 9 359 359 360 359 357 354 356 358 352 347 348 354 357 5 1 2 3 7 12 16 23 31 43 57 69 78 86 91 93 89 75 69 72 75 79 76 78
75 76 64 41 22 13 9 8 6 4 2 360 3 4 353 352 2 2 3 3 4 4 5 8 12 17 20 27 38 52 65 74 81 86 89 86 77 74 78 79 82 81 82
73 60 52 41 26 18 14 11 6 5 5 2 4 2 1 2 4 3 4 4 5 5 5 7 10 12 15 20 30 45 58 70 78 84 84 79 75 76 78 84 88 91 96
78 62 45 36 24 21 15 10 9 9 6 6 3 1 2 7 7 5 4 3 5 7 5 7 9 10 11 14 20 34 50 62 71 80 81 76 73 76 85 92 94 97 100
78 62 45 31 23 19 20 16 14 14 10 7 5 5 5 6 6 6 4 2 3 5 6 7 9 9 10 11 16 25 38 46 58 84 89 82 75 77 87 96 102 104 104
75 60 42 28 27 27 25 23 18 15 12 9 7 6 5 4 4 4 3 360 1 5 6 6 10 11 15 16 12 17 21 26 46 70 87 90 86 86 91 96 99 105 103
70 55 42 34 33 31 31 29 24 19 15 12 8 5 3 2 2 2 1 359 359 5 7 7 7 8 11 17 17 15 18 35 49 59 74 81 83 87 94 99 104 109 111
73 66 57 51 47 42 38 34 29 23 18 14 10 7 5 4 2 1 360 0 359 1 4 3 4 12 13 13 10 10 20 36 50 55 68 83 86 89 95 100 108 111 116